Regional Weather Roundup
Issued by NWS

Home | Current Version | Previous Version | Graphics & Text | Print | Product List | Glossary On
Versions: 1 2 3 4 5 6 7 8 9 10 11 12 13 14 15 16 17 18 19 20 21 22 23 24 25 26 27 28 29 30 31 32 33 34 35 36 37 38 39 40 41 42 43 44 45 46 47 48 49 50
161
ASUS43 KMPX 290201
RWRMN
WEATHER ROUNDUP FOR MINNESOTA
NATIONAL WEATHER SERVICE TWIN CITIES/CHANHASSEN MN
900 PM CDT WED JUN 28 2017


NOTE: "FAIR" INDICATES FEW OR NO CLOUDS BELOW 12,000 FEET WITH NO
SIGNIFICANT WEATHER AND/OR OBSTRUCTIONS TO VISIBILITY. N/A MEANS
CURRENT SKY AND/OR WEATHER CONDITIONS ARE NOT AVAILABLE.

MNZ060>063-068>070-290300-
   Twin Cities Metro

CITY           SKY/WX    TMP DP  RH WIND       PRES   REMARKS
TWIN CITIES    PTCLDY    75  61  61 W7        29.54R
ST PAUL        CLOUDY    74  63  68 SW5       29.54R
CRYSTAL        MOCLDY    74  60  61 W8        29.53R
BLAINE         MOCLDY    75  63  64 W8        29.54R
LAKEVILLE      PTCLDY    72  63  73 W5        29.56S
EDEN PRAIRIE   PTCLDY    74  62  66 W5        29.54R
SOUTH ST PAUL  PTCLDY    75  60  59 W8G16     29.54F
LAKE ELMO      CLOUDY    73  63  68 W8        29.55S
$$
MNZ001>005-007-008-013>017-022>024-027-028-290300-
   Northwest Minnesota

CITY           SKY/WX    TMP DP  RH WIND       PRES   REMARKS
BEMIDJI        LGT RAIN  61  60  97 N10G16    29.59S
HALLOCK        CLOUDY    64  61  88 CALM      29.65S
ROSEAU         CLOUDY    61  55  82 NE8       29.66R
WARROAD        DRIZZLE   61  55  82 N5        29.66S
CROOKSTON      CLOUDY    63  61  94 N8        29.65S
FOSSTON        MOCLDY    57  57 100 NW5       29.63S
DETROIT LAKES  CLOUDY    61  59  94 NW16G22   29.64R
MOORHEAD       CLOUDY    64  61  88 N12       29.65R
PARK RAPIDS    CLOUDY    62  58  86 NW8       29.59R
MAHNOMEN       CLOUDY    60  58  95 NW8       29.63R
$$
MNZ006-009>011-018-025>026-290300-
   North Central Minnesota

CITY           SKY/WX    TMP DP  RH WIND       PRES   REMARKS
BAUDETTE       LGT RAIN  61  61 100 N9        29.63S FOG
FLAG ISLAND    LGT RAIN  61  59  94 E7        29.63F
INTL FALLS     LGT RAIN  60  58  92 NE6       29.62R
WASKISH        LGT RAIN  61  61 100 N8        29.62R
BIG FORK       DRIZZLE   61  57  88 N5        29.58R
LONGVILLE      DRIZZLE   61  59  94 N5        29.57R
GRAND RAPIDS   LGT RAIN  60  59  96 N5        29.57R FOG
CRANE LAKE     DRIZZLE   57  57 100 CALM      29.61S
ORR            DRIZZLE   57  55  94 CALM      29.56S
COOK           DRIZZLE   57  57 100 CALM      29.58R
WALKER         DRIZZLE   59  58  97 NW3       29.58R
$$
MNZ012-019>021-037-290300-
   Northeast Minnesota

CITY           SKY/WX    TMP DP  RH WIND       PRES   REMARKS
DULUTH         LGT RAIN  59  59 100 CALM      29.50S
HIBBING        CLOUDY    59  58  96 NE5       29.54S
EVELETH        CLOUDY    60  57  89 NE6       29.55S
DULUTH HARBOR  LGT RAIN  52  52 100 E12G17    29.51S
TWO HARBORS    DRIZZLE   61  55  82 NE9       29.50F
SILVER BAY     DRIZZLE   57  57 100 NE8       29.53S
GRAND MARAIS     N/A     50  50 100 E10       29.58F
G MARAIS ARPRT RAIN      57  54  88 NE9       29.61F
$$
MNZ029>031-032-039>041-046>048-054>057-064-290300-
   West Central Minnesota

CITY           SKY/WX    TMP DP  RH WIND       PRES   REMARKS
FERGUS FALLS   CLOUDY    64  59  82 N14G21    29.61R
WHEATON        PTCLDY    70  61  73 NW9       29.65R
MORRIS         CLEAR     72  61  68 NW14      29.62R
ALEXANDRIA     CLOUDY    66  59  78 NW16      29.62R
ELBOW LAKE     FAIR      66  61  84 W14       29.63R
WADENA         CLOUDY    63  61  94 NW15      29.59R
GLENWOOD       CLEAR     66  61  82 NW20      29.61R
APPLETON       CLEAR     73  61  64 NW7       29.62R
BENSON         CLEAR     72  61  68 N15G22    29.62R
ORTONVILLE     CLEAR     72  59  64 NW10G17   29.64R
MADISON        CLEAR     75  59  57 NW13      29.63R
WILLMAR        FAIR      72  61  68 NW13      29.62R
$$
MNZ033>034-036-042>043-049>051-058-059-290300-
   Central Minnesota

CITY           SKY/WX    TMP DP  RH WIND       PRES   REMARKS
ST CLOUD       CLOUDY    68  61  78 W9G21     29.54S
SAUK CENTRE    CLOUDY    66  60  78 W14G24    29.58S
PAYNESVILLE    CLEAR     67  59  76 NW10G17   29.59R
AITKIN         LGT RAIN  61  59  94 NW5       29.52R
PINE RIVER     CLOUDY    61  61 100 MISG      29.60R
BRAINERD       CLOUDY    63  62  97 NW10      29.55R
STAPLES        CLOUDY    63  61  94 NW14G22   29.57R
LONG PRAIRIE   CLOUDY    64  59  82 W12G20    29.58R
LITTLE FALLS   MOCLDY    64  59  82 W13       29.54F
LITCHFIELD     CLEAR     73  63  68 NW12G17   29.58R
BUFFALO        CLEAR     71  60  68 W15G21    29.57R
MAPLE LAKE     CLEAR     70  62  75 W14G20    29.58R
HUTCHINSON     CLOUDY    73  63  70 W14       29.59R
$$
MNZ037-044-045-052-053-290300-
   East Central Minnesota

CITY           SKY/WX    TMP DP  RH WIND       PRES   REMARKS
PRINCETON      MOCLDY    70  61  73 W12       29.54R
MORA           CLOUDY    66  59  77 W12       29.53R
CAMBRIDGE      CLOUDY    72  59  64 W12G18    29.51R
RUSH CITY      CLOUDY    68  61  77 W5        29.52R
MOOSE LAKE     CLOUDY    54  52  94 CALM      29.49F
HINCKLEY       CLOUDY    68  63  83 W6        29.50S
CLOQUET        CLOUDY    57  55  94 CALM      29.51S FOG
MCGREGOR       CLOUDY    61  59  94 NW6       29.53R
$$
MNZ071>073-080-081-089-090-097-098-290300-
   Southwest Minnesota

CITY           SKY/WX    TMP DP  RH WIND       PRES   REMARKS
MONTEVIDEO     CLEAR     73  61  64 N8        29.62R
GRANITE FALLS  CLEAR     74  62  67 NW9       29.62R
CANBY          CLEAR     73  61  65 N8        29.65R
MARSHALL       CLEAR     74  62  66 N10       29.63R
REDWOOD FALLS  CLEAR     75  60  59 NW10G18   29.60R
OLIVIA         CLEAR     72  61  68 NW8       29.60R
PIPESTONE      CLEAR     79  57  47 NW7       29.66R
WINDOM         CLEAR     75  63  64 NW8       29.63R
WORTHINGTON    CLEAR     74  63  68 NW6       29.66R
JACKSON        PTCLDY    73  63  68 CALM      29.64R
TRACY          CLEAR     75  64  68 N7        29.64R
SLAYTON        CLEAR     74  62  64 NW6       29.65R
$$
MNZ065>067-074>077-082>085-091>093-290300-
   South Central Minnesota

CITY           SKY/WX    TMP DP  RH WIND       PRES   REMARKS
MANKATO        PTCLDY    75  65  70 NW7       29.58S
NEW ULM        CLEAR     73  63  68 NW10      29.60R
ST JAMES       CLOUDY    73  68  83 NW3       29.61R
FAIRMONT       MOCLDY    78  68  71 N6        29.61R
GLENCOE        CLEAR     75  66  74 W12G17    29.57R
FARIBAULT      MOCLDY    75  64  69 W3        29.58S
OWATONNA       CLOUDY    75  66  73 NW3       29.59R
WASECA         CLOUDY    72  64  78 CALM      29.60S
ALBERT LEA     MOCLDY    68  66  94 SW3       29.59F
$$
MNZ078>079-086>088-094>096-290300-
   Southeast Minnesota

CITY           SKY/WX    TMP DP  RH WIND       PRES   REMARKS
ROCHESTER      TSTM      69  64  84 NW18G24   29.60R
RED WING       PTCLDY    73  66  78 S5        29.55R
STANTON        MOCLDY    75  64  69 W3        29.56R
DODGE CENTER   MOCLDY    70  64  83 SW6       29.61R
WINONA         RAIN      70  68  94 NE3       29.62R
AUSTIN         TSTM      72  64  78 W20G28    29.61R
PRESTON        CLOUDY    72  68  87 CALM      29.61R
$$
ABBREVIATIONS USED IN REMARKS
   TC - TEMPERATURES IN CELSIUS
  WCI - WIND CHILL INDEX
   HX - HEAT INDEX
  VSB - VISIBILITY
$$




USA.gov is the U.S. government's official web portal to all federal, state and local government web resources and services.